Regional Weather Roundup
Issued by NWS

Home | Current Version | Previous Version | Graphics & Text | Print | Product List | Glossary On
Versions: 1 2 3 4 5 6 7 8 9 10 11 12 13 14 15 16 17 18 19 20 21 22 23 24 25 26 27 28 29 30 31 32 33 34 35 36 37 38 39 40 41 42 43 44 45 46 47 48 49 50
000
ASUS43 KFSD 250610
RWRSD

WEATHER ROUNDUP FOR SOUTH DAKOTA
NATIONAL WEATHER SERVICE SIOUX FALLS SD
1200 AM CST SAT FEB 25 2017

NOTE: "FAIR" INDICATES FEW OR NO CLOUDS BELOW 12,000 FEET WITH NO
SIGNIFICANT WEATHER AND/OR OBSTRUCTIONS TO VISIBILITY.


SDZ001>005-009-010-012>017-250700-
NORTHWEST AND NORTH CENTRAL SOUTH DAKOTA

CITY           SKY/WX    TMP DP  RH WIND       PRES   REMARKS
BUFFALO          N/A     22  14  71 W6        29.93F WCI  14
FAITH            N/A     22  16  78 S13       30.04F WCI  10
MOBRIDGE       CLOUDY    22  15  75 SE3       30.06F
$$

SDZ012>016-024>037-041>051-057-063-072>074-250700-
SOUTHWEST AND SOUTH CENTRAL SOUTH DAKOTA

CITY           SKY/WX    TMP DP  RH WIND       PRES   REMARKS
RAPID CTY ARPT CLOUDY    13   9  84 CALM      30.01F
PIERRE         CLOUDY    20  13  74 SE3       30.10F
CUSTER         CLOUDY     8   4  83 W3        29.90F
ELLSWORTH AFB  CLOUDY    18  15  88 CALM      29.99F
PHILIP         CLOUDY    22  17  81 SW6       30.09F WCI  14
PINE RIDGE     CLOUDY     6   3  87 CALM      30.05F
SPEARFISH      CLOUDY    21  14  73 NW3       29.98S
WINNER         FAIR      16  10  77 SW5       30.11F WCI   9
$$

SDZ004>011-016>023-039-040-250700-
NORTHEAST SOUTH DAKOTA

CITY           SKY/WX    TMP DP  RH WIND       PRES   REMARKS
ABERDEEN       CLEAR     16  11  80 NW7       30.10F WCI   6
WATERTOWN      CLEAR     17  13  84 N14       30.03S WCI   3
BROOKINGS      PTCLDY    18  14  86 NW10      30.03S WCI   6
SISSETON         N/A     17  15  92 N8        30.07S WCI   7
$$

SDZ017-020-022-023-036>040-048>070-250700-
SOUTHEAST SOUTH DAKOTA

CITY           SKY/WX    TMP DP  RH WIND       PRES   REMARKS
SIOUX FALLS    PTCLDY    19  14  81 NW12      30.05R WCI   7
HURON          CLEAR     18  15  88 NW8       30.11S WCI   8
CHAMBERLAIN    CLOUDY    22  17  79 CALM      30.12F
MITCHELL       CLEAR     21  16  81 NW10      30.12S WCI  10
YANKTON        CLOUDY    19  12  73 NW13      30.10S WCI   7
$$

ABBREVIATIONS USED IN REMARKS
   TC - TEMPERATURE IN CELSIUS
  WCI - WIND CHILL INDEX
   HX - HEAT INDEX
  VSB - VISIBILITY





USA.gov is the U.S. government's official web portal to all federal, state and local government web resources and services.